Regional Weather Roundup
Issued by NWS State College, PA

Home | Current Version | Previous Version | Text Only | Print | Product List | Glossary On
Versions: 1 2 3 4 5 6 7 8 9 10 11 12 13 14 15 16 17 18 19 20 21 22 23 24 25 26 27 28 29 30 31 32 33 34 35 36 37 38 39 40 41 42 43 44 45 46 47 48 49 50
000
ASUS41 KCTP 031910
RWRCTP

REGIONAL WEATHER ROUNDUP
NATIONAL WEATHER SERVICE STATE COLLEGE PA
300 PM EDT SUN MAY 03 2015

Note: "fair" indicates few or no clouds below 12,000 feet with no
significant weather and/or obstructions to visibility.

* = STATION THAT DOES NOT REPORT PRECIPITATION /E.G. RAIN...SNOW...ETC/
    THUNDER OR FOG.

PAZ002>004-007>009-013>016-020>023-029>032-032000-
WESTERN PENNSYLVANIA

CITY           SKY/WX    TMP DP  RH WIND       PRES   REMARKS
ERIE           SUNNY     71  38  29 W10       30.09S
MEADVILLE      SUNNY     74  37  26 VRB6      30.09F
FRANKLIN*      PTSUNNY   73  39  29 SW12      30.12S
NEW CASTLE     FAIR      79  42  26 SW8G18    30.10F
BEAVER COUNTY  NOT AVBL
BUTLER*        MOSUNNY   75  43  31 W12G20    30.13S
PITTSBURGH INT PTSUNNY   73  40  30 W7        30.11S
PITTSBURGH     SUNNY     74  38  27 VRB6      30.11F
INDIANA*       MOSUNNY   73  43  33 W8G16     30.15S
LATROBE        PTSUNNY   73  45  35 SW6       30.14S
WASHINGTON CO* MOSUNNY   73  45  35 W8        30.14S
$$

PAZ004>006-010>012-017>019-024>028-033>037-041-042-045-046-049>053-032000-
CENTRAL PENNSYLVANIA

CITY           SKY/WX    TMP DP  RH WIND       PRES   REMARKS
BRADFORD       CLOUDY    70  34  26 SW7       30.11F
DUBOIS         CLOUDY    74  36  25 W13       30.11S
CLEARFIELD     CLOUDY    73  34  23 W7        30.11S
JOHNSTOWN      PTSUNNY   70  38  31 NW9       30.14S
ALTOONA        PTSUNNY   72  38  29 N6        30.12F
STATE COLLEGE  PTSUNNY   75  43  31 CALM      30.10S
WILLIAMSPORT   MOSUNNY   79  33  19 W8        30.05F
SELINSGROVE    MOSUNNY   78  40  25 CALM      30.07F
FT INDIANTOWN  PTSUNNY   76  35  22 NE3       30.07F
CAPITAL CITY   PTSUNNY   77  37  23 CALM      30.08F
HARRISBURG     MOSUNNY   79  38  22 CALM      30.07F
YORK           MOSUNNY   79  42  26 N10       30.09F
$$

PAZ038>040-043-044-047-048-054-055-060>062-067>071-032000-
EASTERN PENNSYLVANIA

CITY           SKY/WX    TMP DP  RH WIND       PRES   REMARKS
SCRANTON       MOSUNNY   77  34  21 CALM      30.07F
MOUNT POCONO   SUNNY     73  30  20 NW12      30.09F
ALLENTOWN      MOSUNNY   80  40  23 SW12      30.06F
QUAKERTOWN*    CLEAR     77  39  25 W8        30.09S
READING        MOSUNNY   79  34  19 N7        30.06F
LANCASTER      SUNNY     78  39  24 W9        30.08F
COATESVILLE    CLEAR     75  43  31 NW9       30.11F
POTTSTOWN      SUNNY     76  36  23 VRB3      30.09F
BLUE BELL      SUNNY     79  37  22 NW6       30.08S
DOYLESTOWN     SUNNY     77  33  20 NW8       30.07F
WILLOW GROVE   NOT AVBL
NORTH PHILA    SUNNY     77  36  22 N8        30.09F
PHILADELPHIA   MOSUNNY   79  37  22 S7        30.08F
$$


USA.gov is the U.S. government's official web portal to all federal, state and local government web resources and services.